Terug naar catalogus

YAOGAN-32 2B

ActiefMilitairSSO
NORAD 49384·PAYLOAD·🇨🇳 China

Gelanceerd Nov 3, 2021 vanaf Jiuquan Satellite Launch Center

Loading…

Volgende Passages (komende 24 uur)

TLE

VersSource: Space-Track

Epoch: Sep 14, 2026, 14:52 UTC

1 49384U 21099B   26257.61982500  .00000522  00000-0  10818-3 0  9992
2 49384  98.2591  31.6143 0001013  71.4831 288.6481 14.64313175259458

Volg YAOGAN-32 2B in realtime met AllMySat

Download on the App Store